Simultaneous Nadir Overpasses (SNOs) Predictions

Prediction of SNOs between GOES-16 and LANDSAT-8 Satellite Orbit:

Table of predicted SNOs for the next 14.0 days since TLE Epoch: 12/19/2020
Index Date Time (GOES-16) GOES-16 Lat,Lon LANDSAT-8 Lat,Lon Distance(km) Time Diff (sec)
1 12/19/2020 15:12:56 -0.02, -75.17 0.03, -75.40 25.48 80
2 12/21/2020 15:03:24 -0.01, -75.19 -0.57, -72.43 312.57 80
3 12/22/2020 03:24:47 0.01, -75.17 -0.54, -77.62 279.54 80
4 12/24/2020 03:09:56 0.01, -75.19 0.14, -74.68 59.12 80
5 12/26/2020 02:57:45 0.02, -75.22 0.75, -71.72 398.16 80
6 12/26/2020 15:19:00 -0.01, -75.25 0.31, -76.88 185.11 80
7 12/28/2020 15:09:28 -0.01, -75.28 -0.31, -73.92 154.55 80
8 12/29/2020 03:30:52 0.01, -75.26 -0.79, -79.11 436.97 80
9 12/30/2020 14:57:16 -0.01, -75.31 -0.94, -70.96 494.38 80
10 12/31/2020 03:18:40 0.01, -75.30 -0.16, -76.15 97.09 80
